FALCON 9 DEB (53441 NORAD) Tracking and Keplerian Element Data

This shows tracking and keplerian element data for the satellite.

Feedback or suggestion? Click here.




ElementValue
Catalog53441
NameFALCON 9 DEB
Epoch Orbit324
Epoch Day242.03375904
Epoch Year2022
RAAN145.6228
Inclination53.2081
Eccentricity0.0017762
Argument of Perigee132.371
Mean Anonmoly227.8843
Mean Motion16.32043473
Decay Rate0.03540528
L11 53441U 22097BF 22242.03375904 .03540528 12089-4 58698-3 0 9990
L22 53441 53.2081 145.6228 0017762 132.3710 227.8843 16.32043473 3242

Live tracking and technical data element details for FALCON 9 DEB (NORAD 53441). FALCON 9 DEB can be tracked NOW for your location showing map with azimuth and elevation plus other details from your city location.

Track the satellite on the map from your city or location and see movement details for azimuth, elevation, latitude, longitude, range, height, and movement on the map or in text.







IsCatalogInMostPopularTable: catalog: 53441, numindb: 3
Update: records affected: 1



GetName: 53441 FALCON 9 DEB

Hit Count: updated at: Thu, 29 Sep 2022 10:59:12 GMT